This demonstration page uses our WeatherBlox Daily Observations layout. Learn more.

39.08367, -84.50855

Hourly Observations for December 8, 2019

Temp ( °F °C ) Dew Point ( °F °C ) Humidity (%) Winds ( mph kmh ) Pressure ( in mb ) Visibility ( mi km ) Precip ( " mm )
12:53 am 00:53 Clear 23 -5 22 -5.6 96 96 Calm 30.3 1026 9 14.484096 0 0
1:53 am 01:53 Clear with Mist and Fog 25 -3.9 23 -5 92 92 Calm 30.27 1025 5 8.04672 0 0
2:53 am 02:53 Clear 22 -5.6 19 -7.2 89 89 Calm 30.27 1025 9 14.484096 0 0
3:53 am 03:53 Clear 22 -5.6 20 -6.7 92 92 Calm 30.24 1024 9 14.484096 0 0
4:53 am 04:53 Clear 23 -5 22 -5.6 96 96 Calm 30.24 1024 9 14.484096 0 0
5:53 am 05:53 Clear 23 -5 22 -5.6 96 96 Calm 30.24 1024 10 16.09344 0 0
6:53 am 06:53 Clear 23 -5 21 -6.1 92 92 Calm 30.24 1024 10 16.09344 0 0
7:53 am 07:53 Partly Cloudy 24 -4.4 22 -5.6 91 91 Calm 30.21 1023 10 16.09344 0 0
8:53 am 08:53 Mostly Sunny 27 -2.8 24 -4.4 89 89 Calm 30.21 1023 10 16.09344 0 0
9:53 am 09:53 Partly Cloudy 35 1.7 33 0.6 93 93 Calm 30.21 1023 10 16.09344 0 0
10:53 am 10:53 Cloudy 44 6.7 38 3.3 79 79 S 12 19 30.18 1022 10 16.09344 0 0
11:53 am 11:53 Cloudy 47 8.3 39 3.9 74 74 S 7 11 30.15 1021 10 16.09344 0 0
12:53 pm 12:53 Cloudy 50 10 40 4.4 68 68 S 8 13 30.12 1020 10 16.09344 0 0
1:53 pm 13:53 Cloudy 54 12.2 43 6.1 67 67 S 9 15 30.06 1018 10 16.09344 0 0
2:53 pm 14:53 Cloudy 56 13.3 42 5.6 60 60 SSW 9 15 30.06 1018 10 16.09344 0 0
3:53 pm 15:53 Mostly Cloudy 56 13.3 43 6.1 62 62 SSW 7 11 30.03 1017 10 16.09344 0 0
4:53 pm 16:53 Mostly Cloudy 55 12.8 42 5.6 62 62 S 9 15 30.03 1017 10 16.09344 0 0
5:53 pm 17:53 Mostly Cloudy 54 12.2 43 6.1 67 67 S 9 15 30.03 1017 10 16.09344 0 0
6:53 pm 18:53 Mostly Cloudy 52 11.1 43 6.1 72 72 S 7 11 30.03 1017 10 16.09344 0 0
7:53 pm 19:53 Cloudy 51 10.6 43 6.1 74 74 S 6 9 30.03 1017 10 16.09344 0 0
8:53 pm 20:53 Mostly Cloudy 52 11.1 43 6.1 72 72 S 5 7 30 1016 10 16.09344 0 0
9:53 pm 21:53 Mostly Clear 54 12.2 42 5.6 64 64 S 10 17 29.97 1015 10 16.09344 0 0
10:53 pm 22:53 Mostly Clear 53 11.7 42 5.6 66 66 S 8 13 29.97 1015 10 16.09344 0 0
11:53 pm 23:53 Mostly Cloudy 53 11.7 41 5 64 64 S 8 13 29.94 1014 10 16.09344 0 0

Powered by AerisWeather